Location: Caltech
(34.1382°N, 118.1253°W)
Time: 19:43:16
(UTC-07:00)

JAS-1B - Visible Passes

Search period start: 22 May 2015 00:00
Search period end: 01 June 2015 00:00
Orbit: 912 x 1743 km, 99.1° (Epoch: 22 May)

Date Brightness Start Highest point End Pass type
(mag) Time Alt. Az. Time Alt. Az. Time Alt. Az.
22 May 8.2 00:44:52 10° N 00:54:41 66° WNW 00:56:08 59° WSW visible
22 May 9.9 02:38:35 10° NNW 02:43:32 14° NW 02:47:44 10° W visible
22 May 8.7 23:14:03 10° NNE 23:23:00 39° E 23:23:19 39° E visible
23 May 8.5 01:04:08 10° N 01:13:37 51° WNW 01:15:35 45° W visible
23 May 10.2 03:01:00 10° NW 03:02:05 10° NW 03:02:18 10° NW visible
23 May 8.3 23:32:46 10° NNE 23:42:19 52° E 23:42:46 51° ESE visible
24 May 8.9 01:23:32 10° N 01:32:29 39° WNW 01:35:02 34° W visible
24 May 9.8 22:07:04 10° ENE 22:08:58 11° E 22:09:58 11° E visible
24 May 8.0 23:51:38 10° NNE 00:01:32 67° E 00:02:13 66° ESE visible
25 May 9.2 01:43:03 10° N 01:51:17 30° WNW 01:54:29 25° W visible
25 May 9.5 22:23:19 10° NE 22:28:39 17° E 22:29:24 17° E visible
26 May 7.9 00:10:39 10° NNE 00:20:40 86° ESE 00:21:40 75° S visible
26 May 9.6 02:02:46 10° NNW 02:10:01 23° WNW 02:13:55 17° W visible
26 May 9.2 22:41:06 10° NE 22:48:14 24° E 22:48:50 24° E visible
27 May 8.0 00:29:46 10° N 00:39:42 75° WNW 00:41:06 66° SW visible
27 May 9.8 02:22:47 10° NNW 02:28:41 17° WNW 02:33:22 11° W visible
27 May 8.8 22:59:24 10° NNE 23:07:43 32° E 23:08:16 32° E visible
28 May 8.3 00:48:59 10° N 00:58:39 59° WNW 01:00:32 51° WSW visible
28 May 10.0 02:43:29 10° NNW 02:47:15 12° NW 02:50:12 10° WNW visible
28 May 8.5 23:17:59 10° NNE 23:27:06 43° E 23:27:42 43° ESE visible
29 May 8.7 01:08:19 10° N 01:17:32 45° WNW 01:19:57 38° W visible
29 May 8.1 23:36:46 10° NNE 23:46:23 57° E 23:47:07 56° ESE visible
30 May 9.0 01:27:47 10° N 01:36:22 35° WNW 01:39:22 28° W visible
30 May 9.6 22:09:52 10° ENE 22:13:06 13° E 22:14:16 13° E visible
30 May 7.9 23:55:43 10° NNE 00:05:34 74° ESE 00:06:32 69° SE visible
31 May 9.4 01:47:24 10° N 01:55:07 26° WNW 01:58:48 20° W visible
31 May 9.3 22:26:54 10° NE 22:32:45 19° E 22:33:40 19° E visible
